DAL25M KLAX-KSFO

Flight info

Callsign DAL25M
Flight time N/A
Altitude 38000
Route SUMMR2 STOKD SERFR SERFR4
Aircraft A20N/M-SDE2E3FGHIRWXY/LB1

Departure

Time 2026-04-22 00:40
Airport Los Angeles International Airport (KLAX)

Arrival

Time N/A
Airport San Francisco International Airport (KSFO)
Time Latitude Longitude Altitude Speed Heading
2026-04-22 00:29 33.94794 -118.40127 121 ft 0 kts 187°
2026-04-22 00:35 33.94807 -118.40125 121 ft 2 kts 186°
2026-04-22 00:35 33.94823 -118.40124 121 ft 2 kts 176°
2026-04-22 00:35 33.94838 -118.40131 121 ft 2 kts 92°
2026-04-22 00:35 33.94837 -118.40142 123 ft 0 kts 83°
2026-04-22 00:38 33.94839 -118.40126 124 ft 7 kts 83°
2026-04-22 00:38 33.94894 -118.40077 122 ft 13 kts 11°
2026-04-22 00:38 33.94929 -118.39982 125 ft 15 kts 83°
2026-04-22 00:38 33.94994 -118.39911 123 ft 14 kts 359°
2026-04-22 00:39 33.95038 -118.39978 122 ft 0 kts 263°
2026-04-22 00:39 33.95033 -118.40034 123 ft 35 kts 263°
2026-04-22 00:39 33.94967 -118.40682 125 ft 117 kts 263°
2026-04-22 00:40 33.94849 -118.41860 437 ft 152 kts 263°
2026-04-22 00:40 33.94729 -118.43152 1188 ft 161 kts 263°
2026-04-22 00:40 33.94579 -118.44553 1970 ft 175 kts 263°
2026-04-22 00:40 33.94419 -118.46071 2570 ft 193 kts 263°
2026-04-22 00:41 33.94322 -118.47791 2912 ft 219 kts 268°
2026-04-22 00:41 33.94268 -118.49702 3501 ft 237 kts 267°
2026-04-22 00:41 33.94160 -118.51724 4359 ft 245 kts 264°
2026-04-22 00:41 33.93996 -118.53795 5325 ft 250 kts 263°
2026-04-22 00:42 33.93833 -118.55898 6304 ft 254 kts 263°
2026-04-22 00:42 33.93668 -118.58029 7279 ft 256 kts 262°
2026-04-22 00:42 33.93503 -118.60171 8271 ft 258 kts 262°
2026-04-22 00:42 33.93335 -118.62328 9271 ft 259 kts 262°
2026-04-22 00:43 33.93166 -118.64496 10250 ft 262 kts 262°
2026-04-22 00:43 33.92988 -118.66749 10749 ft 281 kts 262°
2026-04-22 00:43 33.92795 -118.69176 11160 ft 301 kts 262°
2026-04-22 00:43 33.92597 -118.71738 11550 ft 311 kts 262°
2026-04-22 00:44 33.92401 -118.74313 11654 ft 308 kts 262°
2026-04-22 00:44 33.92203 -118.76886 11758 ft 309 kts 262°
2026-04-22 00:44 33.92001 -118.79479 12146 ft 313 kts 262°
2026-04-22 00:44 33.91798 -118.82074 13166 ft 310 kts 262°
2026-04-22 00:45 33.91730 -118.84678 14059 ft 314 kts 269°
2026-04-22 00:45 33.91818 -118.87317 14836 ft 316 kts 269°
2026-04-22 00:45 33.91903 -118.89963 15621 ft 318 kts 269°
2026-04-22 00:45 33.91983 -118.92627 16395 ft 320 kts 269°
2026-04-22 00:46 33.92062 -118.95315 17159 ft 322 kts 269°
2026-04-22 00:46 33.92147 -118.98016 17922 ft 324 kts 271°
2026-04-22 00:46 33.92497 -119.00717 18626 ft 330 kts 279°
2026-04-22 00:46 33.93249 -119.03363 19262 ft 338 kts 288°
2026-04-22 00:47 33.94397 -119.05874 19889 ft 346 kts 295°
2026-04-22 00:47 33.95684 -119.08332 20530 ft 349 kts 295°
2026-04-22 00:47 33.96974 -119.10818 21149 ft 351 kts 295°
2026-04-22 00:47 33.98269 -119.13325 21765 ft 354 kts 295°
2026-04-22 00:48 33.99602 -119.15832 22372 ft 359 kts 298°
2026-04-22 00:48 34.01194 -119.18200 22959 ft 368 kts 305°
2026-04-22 00:48 34.03074 -119.20350 23599 ft 377 kts 312°
2026-04-22 00:48 34.05206 -119.22255 24133 ft 384 kts 316°
2026-04-22 00:49 34.07397 -119.24123 24601 ft 387 kts 315°
2026-04-22 00:49 34.09598 -119.26012 25096 ft 389 kts 315°
2026-04-22 00:49 34.11806 -119.27912 25551 ft 391 kts 315°
2026-04-22 00:49 34.14030 -119.29828 26007 ft 394 kts 315°
2026-04-22 00:50 34.16269 -119.31759 26454 ft 397 kts 315°
2026-04-22 00:50 34.18524 -119.33702 26888 ft 399 kts 315°
2026-04-22 00:50 34.20791 -119.35658 27309 ft 402 kts 315°
2026-04-22 00:50 34.23073 -119.37626 27782 ft 404 kts 315°
2026-04-22 00:51 34.25365 -119.39604 28175 ft 406 kts 315°
2026-04-22 00:51 34.27672 -119.41599 28560 ft 409 kts 315°
2026-04-22 00:51 34.29993 -119.43606 28929 ft 411 kts 315°
2026-04-22 00:51 34.32329 -119.45627 29292 ft 414 kts 315°
2026-04-22 00:52 34.34677 -119.47660 29637 ft 416 kts 315°
2026-04-22 00:52 34.37038 -119.49706 29981 ft 419 kts 315°
2026-04-22 00:52 34.39380 -119.51739 30314 ft 420 kts 314°
2026-04-22 00:52 34.41635 -119.53951 30675 ft 415 kts 309°
2026-04-22 00:53 34.43677 -119.56388 31039 ft 411 kts 306°
2026-04-22 00:53 34.45687 -119.58869 31375 ft 414 kts 306°
2026-04-22 00:53 34.47709 -119.61343 31818 ft 413 kts 306°
2026-04-22 00:53 34.49718 -119.63808 32312 ft 409 kts 306°
2026-04-22 00:54 34.51728 -119.66263 32667 ft 411 kts 306°
2026-04-22 00:54 34.53736 -119.68729 33063 ft 410 kts 306°
2026-04-22 00:54 34.55731 -119.71199 33461 ft 409 kts 306°
2026-04-22 00:54 34.57718 -119.73657 33868 ft 408 kts 306°
2026-04-22 00:55 34.59703 -119.76114 33988 ft 406 kts 306°
2026-04-22 00:55 34.65616 -119.83434 34110 ft 404 kts 306°
2026-04-22 00:56 34.69547 -119.88285 34095 ft 401 kts 306°
2026-04-22 00:56 34.73433 -119.93150 34130 ft 401 kts 306°
2026-04-22 00:57 34.77344 -119.98014 34102 ft 402 kts 306°
2026-04-22 00:57 34.81257 -120.02871 34099 ft 403 kts 306°
2026-04-22 00:58 34.85179 -120.07734 34108 ft 404 kts 306°
2026-04-22 00:58 34.89098 -120.12607 34118 ft 400 kts 306°
2026-04-22 00:59 34.92989 -120.17452 34133 ft 399 kts 306°
2026-04-22 00:59 34.96851 -120.22271 34097 ft 398 kts 306°
2026-04-22 01:00 35.00710 -120.27150 34115 ft 399 kts 306°
2026-04-22 01:00 35.04549 -120.31985 34104 ft 400 kts 306°
2026-04-22 01:01 35.08415 -120.36847 34098 ft 398 kts 306°
2026-04-22 01:01 35.12441 -120.41546 34104 ft 402 kts 309°
2026-04-22 01:02 35.16602 -120.46091 34091 ft 402 kts 309°
2026-04-22 01:02 35.20720 -120.50685 34111 ft 403 kts 309°
2026-04-22 01:03 35.24844 -120.55310 34107 ft 400 kts 309°
2026-04-22 01:03 35.28955 -120.59899 34093 ft 401 kts 309°
2026-04-22 01:04 35.33048 -120.64530 34092 ft 400 kts 308°
2026-04-22 01:04 35.37150 -120.69150 34094 ft 401 kts 309°
2026-04-22 01:05 35.41249 -120.73781 34102 ft 400 kts 308°
2026-04-22 01:05 35.45324 -120.78422 34100 ft 400 kts 308°
2026-04-22 01:06 35.49534 -120.82943 34119 ft 407 kts 314°
2026-04-22 01:06 35.54063 -120.87102 34114 ft 406 kts 314°
2026-04-22 01:07 35.58569 -120.91287 34118 ft 405 kts 313°
2026-04-22 01:07 35.62292 -120.94743 34106 ft 403 kts 313°
2026-04-22 01:08 35.67522 -120.99620 34104 ft 403 kts 314°
2026-04-22 01:08 35.72004 -121.03791 34105 ft 405 kts 314°
2026-04-22 01:09 35.76474 -121.07959 34102 ft 401 kts 313°
2026-04-22 01:09 35.80887 -121.12093 34101 ft 402 kts 313°
2026-04-22 01:10 35.85367 -121.16286 34099 ft 401 kts 313°
2026-04-22 01:10 35.89788 -121.20429 34101 ft 402 kts 313°
2026-04-22 01:11 35.93479 -121.23890 34102 ft 399 kts 313°
2026-04-22 01:11 35.98642 -121.28747 34096 ft 400 kts 313°
2026-04-22 01:12 36.02319 -121.32198 34097 ft 399 kts 313°
2026-04-22 01:12 36.04527 -121.34277 33930 ft 399 kts 313°
2026-04-22 01:12 36.06745 -121.36345 33546 ft 400 kts 315°
2026-04-22 01:13 36.09129 -121.38276 32804 ft 407 kts 317°
2026-04-22 01:13 36.11504 -121.40120 32008 ft 409 kts 318°
2026-04-22 01:13 36.13918 -121.41993 31236 ft 410 kts 318°
2026-04-22 01:13 36.16340 -121.43872 30549 ft 410 kts 318°
2026-04-22 01:14 36.18729 -121.45727 30058 ft 402 kts 318°
2026-04-22 01:14 36.21077 -121.47554 29499 ft 396 kts 317°
2026-04-22 01:14 36.23389 -121.49355 28952 ft 390 kts 317°
2026-04-22 01:14 36.25663 -121.51140 28430 ft 383 kts 317°
2026-04-22 01:15 36.27903 -121.52890 27923 ft 378 kts 317°
2026-04-22 01:15 36.30103 -121.54613 27418 ft 368 kts 317°
2026-04-22 01:15 36.32236 -121.56291 26933 ft 359 kts 317°
2026-04-22 01:15 36.34312 -121.57945 26481 ft 351 kts 316°
2026-04-22 01:16 36.36359 -121.59560 26009 ft 346 kts 317°
2026-04-22 01:16 36.38378 -121.61137 25556 ft 341 kts 317°
2026-04-22 01:16 36.40375 -121.62694 25106 ft 336 kts 316°
2026-04-22 01:16 36.42341 -121.64237 24695 ft 332 kts 316°
2026-04-22 01:17 36.44288 -121.65769 24218 ft 329 kts 316°
2026-04-22 01:17 36.46206 -121.67275 23779 ft 324 kts 316°
2026-04-22 01:17 36.48094 -121.68763 23349 ft 318 kts 316°
2026-04-22 01:17 36.49950 -121.70234 23083 ft 322 kts 316°
2026-04-22 01:18 36.51867 -121.71766 22799 ft 331 kts 316°
2026-04-22 01:18 36.53817 -121.73306 22377 ft 332 kts 317°
2026-04-22 01:18 36.55438 -121.74583 22022 ft 329 kts 317°